GENA-OT-1

导读

GENA-OT-1是一颗由德国(DE)发射的卫星,于2025年11月28日成功进入太空。作为德国航天领域的最新成果,这颗卫星承担着相关技术验证或特定空间观测任务,展现了德国在航天技术研发与太空探索领域的持续投入与技术积累,将为后续同类卫星项目积累宝贵的在轨运行数据与经验,助力欧洲航天网络的进一步完善。

Basic Information
目录编号:
66774
目录名称:
GENA-OT-1
国际标识:
2025-276DN
轨道中心:
EARTH
卫星名称:
GENA-OT-1
卫星全名:
GENA-OT-1
卫星状态:
在轨 (已飞行281 天)
发射日期:
2025-11-28 UTC
国别 :
德国 (DE)
星等 :
--
Orbit Information
数据来源 国际轨道数据
星历时间: 2026-09-05T11:32:19+0800
14小时前
查看轨道信息
半长轴: 6878.202km
偏心率: 0.0000569
轨道倾角: 97.414°
近地点辐角 46.692°
升交点赤经 320.922°
平近点角 313.437°
近地点: 499.673km
远地点: 500.457km
周期: 94.618分钟
每日圈数: 15.219151
Detailed Information
使用方式:
暂无
2D Orbit Map
3D Orbit Map
Orbit Altitude Analysis Chart
Orbit Inclination Analysis Chart
Orbit Comprehensive Analysis Chart
View Comprehensive Chart
Conjunction Data List
Event ID Objects TCA Miss Dist (km) Collision Risk Probability Collision Risk Index (CRI) Action
CDM_260907-195006-677406-727021
OBJECT Y (67270)
2026-09-07T
19:50:52+0000
1.913 km
极远距离
4.492495E-7 极低风险 0.28
CDM_260905-211606-409006-677424
OBJECT D (64090)
2026-09-05T
21:16:59+0000
2.423 km
极远距离
3.292293E-7 极低风险 0.25